Year,Month,Day,Hour,Minute,Value (Times are PST for temperature in C)
2015,05,28,10,16,20.30
2015,05,28,10,17,20.40
2015,05,28,10,18,20.40
2015,05,28,10,19,20.50
2015,05,28,10,20,20.60
2015,05,28,10,21,20.70
2015,05,28,10,22,20.80
2015,05,28,10,23,20.80
2015,05,28,10,24,20.80
2015,05,28,10,25,20.90
2015,05,28,10,26,21.00
2015,05,28,10,27,21.00
2015,05,28,10,28,21.10
2015,05,28,10,29,21.20
2015,05,28,10,30,21.30
2015,05,28,10,31,21.40
2015,05,28,10,32,21.50
2015,05,28,10,33,21.60
2015,05,28,10,34,21.50
2015,05,28,10,35,21.40
2015,05,28,10,36,21.30
2015,05,28,10,37,21.30
2015,05,28,10,38,21.20
2015,05,28,10,39,21.10
2015,05,28,10,40,21.00
2015,05,28,10,41,21.00
2015,05,28,10,42,21.00
2015,05,28,10,43,21.10
2015,05,28,10,44,21.10
2015,05,28,10,45,21.20
2015,05,28,10,46,21.30
2015,05,28,10,47,21.40
2015,05,28,10,48,21.50
2015,05,28,10,49,21.60
2015,05,28,10,50,21.70
2015,05,28,10,51,21.80
2015,05,28,10,52,21.90
2015,05,28,10,53,22.00
2015,05,28,10,54,22.10
2015,05,28,10,55,22.00
2015,05,28,10,56,21.90
2015,05,28,10,57,21.80
2015,05,28,10,58,21.70
2015,05,28,10,59,21.50
2015,05,28,11,00,21.40
2015,05,28,11,01,21.20
2015,05,28,11,02,21.20
2015,05,28,11,03,21.10
2015,05,28,11,04,21.10
2015,05,28,11,05,21.20
2015,05,28,11,06,21.10
2015,05,28,11,07,21.10
2015,05,28,11,08,21.10
2015,05,28,11,09,21.20
2015,05,28,11,10,21.20
2015,05,28,11,11,21.20
2015,05,28,11,12,21.30
2015,05,28,11,13,21.30
2015,05,28,11,14,21.40
2015,05,28,11,15,21.50
2015,05,28,11,16,21.50
2015,05,28,11,17,21.60
2015,05,28,11,18,21.60
2015,05,28,11,19,21.50
2015,05,28,11,20,21.50
2015,05,28,11,21,21.60
2015,05,28,11,22,21.50
2015,05,28,11,23,21.40
2015,05,28,11,24,21.40
2015,05,28,11,25,21.50
2015,05,28,11,26,21.50
2015,05,28,11,27,21.70
2015,05,28,11,28,21.80
2015,05,28,11,29,21.70
2015,05,28,11,30,21.70
2015,05,28,11,31,21.80
2015,05,28,11,32,21.90
2015,05,28,11,33,22.00
2015,05,28,11,34,21.90
2015,05,28,11,35,21.80
2015,05,28,11,36,21.80
2015,05,28,11,37,21.80
2015,05,28,11,38,21.80
2015,05,28,11,39,21.90
2015,05,28,11,40,21.90
2015,05,28,11,41,21.80
2015,05,28,11,42,21.80
2015,05,28,11,43,21.80
2015,05,28,11,44,21.90
2015,05,28,11,45,22.00
2015,05,28,11,46,21.90
2015,05,28,11,47,21.80
2015,05,28,11,48,21.80
2015,05,28,11,49,21.80
2015,05,28,11,50,21.70
2015,05,28,11,51,21.60
2015,05,28,11,52,21.60
2015,05,28,11,53,21.70
2015,05,28,11,54,21.80
2015,05,28,11,55,21.80
2015,05,28,11,56,21.60
2015,05,28,11,57,21.40
2015,05,28,11,58,21.30
2015,05,28,11,59,21.40
2015,05,28,12,00,21.60
2015,05,28,12,01,21.70
2015,05,28,12,02,21.80
2015,05,28,12,03,21.90
2015,05,28,12,04,22.00
2015,05,28,12,05,22.20
2015,05,28,12,06,22.30
2015,05,28,12,07,22.40
2015,05,28,12,08,22.50
2015,05,28,12,09,22.60
2015,05,28,12,10,22.60
2015,05,28,12,11,22.70
2015,05,28,12,12,22.80
2015,05,28,12,13,22.80
2015,05,28,12,14,22.80
2015,05,28,12,15,22.80
2015,05,28,12,16,22.70
2015,05,28,12,17,22.60
2015,05,28,12,18,22.60
2015,05,28,12,19,22.60
2015,05,28,12,20,22.50
2015,05,28,12,21,22.50
2015,05,28,12,22,22.50
2015,05,28,12,23,22.40
2015,05,28,12,24,22.40
2015,05,28,12,25,22.50
2015,05,28,12,26,22.60
2015,05,28,12,27,22.60
2015,05,28,12,28,22.50
2015,05,28,12,29,22.40
2015,05,28,12,30,22.40
2015,05,28,12,31,22.50
2015,05,28,12,32,22.60
2015,05,28,12,33,22.70
2015,05,28,12,34,22.70
2015,05,28,12,35,22.80
2015,05,28,12,36,22.90
2015,05,28,12,37,22.90
2015,05,28,12,38,22.90
2015,05,28,12,39,22.80
2015,05,28,12,40,22.80
2015,05,28,12,41,22.70
2015,05,28,12,42,22.70
2015,05,28,12,43,22.80
2015,05,28,12,44,22.70
2015,05,28,12,45,22.50
2015,05,28,12,46,22.40
2015,05,28,12,47,22.40
2015,05,28,12,48,22.40
2015,05,28,12,49,22.30
2015,05,28,12,50,22.30
2015,05,28,12,51,22.30
2015,05,28,12,52,22.40
2015,05,28,12,53,22.40
2015,05,28,12,54,22.40
2015,05,28,12,55,22.50
2015,05,28,12,56,22.60
2015,05,28,12,57,22.70
2015,05,28,12,58,22.90
2015,05,28,12,59,23.00
2015,05,28,13,00,23.20
2015,05,28,13,01,23.20
2015,05,28,13,02,23.30
2015,05,28,13,03,23.30
2015,05,28,13,04,23.20
2015,05,28,13,05,23.20
2015,05,28,13,06,23.20
2015,05,28,13,07,23.20
2015,05,28,13,08,23.10
2015,05,28,13,09,23.20
2015,05,28,13,10,23.20
2015,05,28,13,11,23.20
2015,05,28,13,12,23.20
2015,05,28,13,13,23.20
2015,05,28,13,14,23.30
2015,05,28,13,15,23.30
2015,05,28,13,16,23.30
2015,05,28,13,17,23.20
2015,05,28,13,18,23.10
2015,05,28,13,19,23.10
2015,05,28,13,20,23.10
2015,05,28,13,21,23.00
2015,05,28,13,22,23.00
2015,05,28,13,23,23.10
2015,05,28,13,24,23.20
2015,05,28,13,25,23.20
2015,05,28,13,26,23.20
2015,05,28,13,27,23.10
2015,05,28,13,28,23.10
2015,05,28,13,29,23.30
2015,05,28,13,30,23.20
2015,05,28,13,31,23.10
2015,05,28,13,32,23.10
2015,05,28,13,33,23.20
2015,05,28,13,34,23.20
2015,05,28,13,35,23.20
2015,05,28,13,36,23.20
2015,05,28,13,37,23.10
2015,05,28,13,38,23.20
2015,05,28,13,39,23.30
2015,05,28,13,40,23.40
2015,05,28,13,41,23.40
2015,05,28,13,42,23.50
2015,05,28,13,43,23.60
2015,05,28,13,44,23.30
2015,05,28,13,45,23.20
2015,05,28,13,46,23.20
2015,05,28,13,47,23.10
2015,05,28,13,48,23.20
2015,05,28,13,49,23.20
2015,05,28,13,50,23.30
2015,05,28,13,51,23.20
2015,05,28,13,52,23.20
2015,05,28,13,53,23.20
2015,05,28,13,54,23.30
2015,05,28,13,55,23.40
2015,05,28,13,56,23.70
2015,05,28,13,57,23.80
2015,05,28,13,58,23.90
2015,05,28,13,59,24.00
2015,05,28,14,00,24.20
2015,05,28,14,01,24.20
2015,05,28,14,02,24.20
2015,05,28,14,03,24.10
2015,05,28,14,04,23.70
2015,05,28,14,05,23.60
2015,05,28,14,06,23.30
2015,05,28,14,07,23.30
2015,05,28,14,08,23.30
2015,05,28,14,09,23.40
2015,05,28,14,10,23.40
2015,05,28,14,11,23.40
2015,05,28,14,12,23.40
2015,05,28,14,13,23.50
2015,05,28,14,14,23.50
2015,05,28,14,15,23.60
2015,05,28,14,16,23.70
2015,05,28,14,17,23.70
2015,05,28,14,18,23.60
2015,05,28,14,19,23.70
2015,05,28,14,20,23.80
2015,05,28,14,21,23.80
2015,05,28,14,22,23.80
2015,05,28,14,23,23.80
2015,05,28,14,24,23.70
2015,05,28,14,25,23.60
2015,05,28,14,26,23.50
2015,05,28,14,27,23.30
2015,05,28,14,28,23.30
2015,05,28,14,29,23.40
2015,05,28,14,30,23.40
2015,05,28,14,31,23.60
2015,05,28,14,32,23.70
2015,05,28,14,33,23.90
2015,05,28,14,34,24.10
2015,05,28,14,35,24.30
2015,05,28,14,36,24.40
2015,05,28,14,37,24.50
2015,05,28,14,38,24.50
2015,05,28,14,39,24.40
2015,05,28,14,40,24.20
2015,05,28,14,41,24.10
2015,05,28,14,42,24.20
2015,05,28,14,43,24.30
2015,05,28,14,44,24.30
2015,05,28,14,45,24.30
2015,05,28,14,46,24.20
2015,05,28,14,47,24.20
2015,05,28,14,48,24.20
2015,05,28,14,49,24.20
2015,05,28,14,50,24.20
2015,05,28,14,51,24.20
2015,05,28,14,52,24.20
2015,05,28,14,53,24.20
2015,05,28,14,54,24.30
2015,05,28,14,55,24.40
2015,05,28,14,56,24.40
2015,05,28,14,57,24.50
2015,05,28,14,58,24.60
2015,05,28,14,59,24.60
2015,05,28,15,00,24.50
2015,05,28,15,01,24.40
2015,05,28,15,02,24.40
2015,05,28,15,03,24.30
2015,05,28,15,04,24.40
2015,05,28,15,05,24.40
2015,05,28,15,06,24.50
2015,05,28,15,07,24.40
2015,05,28,15,08,24.30
2015,05,28,15,09,24.20
2015,05,28,15,10,24.10
2015,05,28,15,11,24.10
2015,05,28,15,12,24.20
2015,05,28,15,13,24.30
2015,05,28,15,14,24.30
2015,05,28,15,15,24.30
2015,05,28,15,16,24.20
2015,05,28,15,17,24.10
2015,05,28,15,18,24.00
2015,05,28,15,19,24.00
2015,05,28,15,20,23.90
2015,05,28,15,21,23.90
2015,05,28,15,22,24.00
2015,05,28,15,23,24.10
2015,05,28,15,24,24.10
2015,05,28,15,25,24.10
2015,05,28,15,26,24.10
2015,05,28,15,27,24.20
2015,05,28,15,28,24.20
2015,05,28,15,29,24.20
2015,05,28,15,30,24.10
2015,05,28,15,31,24.00
2015,05,28,15,32,23.90
2015,05,28,15,33,23.90
2015,05,28,15,34,23.80
2015,05,28,15,35,23.70
2015,05,28,15,36,23.80
2015,05,28,15,37,23.90
2015,05,28,15,38,24.10
2015,05,28,15,39,24.30
2015,05,28,15,40,24.50
2015,05,28,15,41,24.60
2015,05,28,15,42,24.60
2015,05,28,15,43,24.60
2015,05,28,15,44,24.70
2015,05,28,15,45,24.60
2015,05,28,15,46,24.60
2015,05,28,15,47,24.60
2015,05,28,15,48,24.60
2015,05,28,15,49,24.70
2015,05,28,15,50,24.90
2015,05,28,15,51,24.90
2015,05,28,15,52,25.00
2015,05,28,15,53,25.00
2015,05,28,15,54,25.00
2015,05,28,15,55,24.90
2015,05,28,15,56,24.80
2015,05,28,15,57,24.80
2015,05,28,15,58,24.80
2015,05,28,15,59,24.70
2015,05,28,16,00,24.60
2015,05,28,16,01,24.60
2015,05,28,16,02,24.60
2015,05,28,16,03,24.50
2015,05,28,16,04,24.50
2015,05,28,16,05,24.60
2015,05,28,16,06,24.70
2015,05,28,16,07,24.90
2015,05,28,16,08,24.80
2015,05,28,16,09,24.60
2015,05,28,16,10,24.50
2015,05,28,16,11,24.40
2015,05,28,16,12,24.30
2015,05,28,16,13,24.30
2015,05,28,16,14,24.40
2015,05,28,16,15,24.50
2015,05,28,16,16,24.60
2015,05,28,16,17,24.50
2015,05,28,16,18,24.60
2015,05,28,16,19,24.70
2015,05,28,16,20,24.70
2015,05,28,16,21,24.70
2015,05,28,16,22,24.70
2015,05,28,16,23,24.60
2015,05,28,16,24,24.60
2015,05,28,16,25,24.60
2015,05,28,16,26,24.60
2015,05,28,16,27,24.70
2015,05,28,16,28,24.80
2015,05,28,16,29,24.80
2015,05,28,16,30,24.90
2015,05,28,16,31,25.00
2015,05,28,16,32,25.00
2015,05,28,16,33,25.10
2015,05,28,16,34,25.20
2015,05,28,16,35,25.30
2015,05,28,16,36,25.40
2015,05,28,16,37,25.50
2015,05,28,16,38,25.60
2015,05,28,16,39,25.60
2015,05,28,16,40,25.50
2015,05,28,16,41,25.50
2015,05,28,16,42,25.50
2015,05,28,16,43,25.50
2015,05,28,16,44,25.60
2015,05,28,16,45,25.70
2015,05,28,16,46,25.80
2015,05,28,16,47,25.90
2015,05,28,16,48,26.00
2015,05,28,16,49,25.90
2015,05,28,16,50,25.70
2015,05,28,16,51,25.60
2015,05,28,16,52,25.50
2015,05,28,16,53,25.30
2015,05,28,16,54,25.20
2015,05,28,16,55,25.10
2015,05,28,16,56,25.00
2015,05,28,16,57,24.90
2015,05,28,16,58,25.00
2015,05,28,16,59,25.10
2015,05,28,17,00,25.10
2015,05,28,17,01,25.00
2015,05,28,17,02,25.00
2015,05,28,17,03,25.10
2015,05,28,17,04,25.00
2015,05,28,17,05,24.90
2015,05,28,17,06,24.90
2015,05,28,17,07,24.80
2015,05,28,17,08,24.70
2015,05,28,17,09,24.70
2015,05,28,17,10,24.70
2015,05,28,17,11,24.70
2015,05,28,17,12,24.70
2015,05,28,17,13,24.80
2015,05,28,17,14,24.80
2015,05,28,17,15,24.90
2015,05,28,17,16,25.00
2015,05,28,17,17,25.00
2015,05,28,17,18,24.90
2015,05,28,17,19,24.80
2015,05,28,17,20,24.80
2015,05,28,17,21,24.80
2015,05,28,17,22,24.70
2015,05,28,17,23,24.60
2015,05,28,17,24,24.50
2015,05,28,17,25,24.50
2015,05,28,17,26,24.50
2015,05,28,17,27,24.50
2015,05,28,17,28,24.60
2015,05,28,17,29,24.70
2015,05,28,17,30,24.70
2015,05,28,17,31,24.80
2015,05,28,17,32,24.80
2015,05,28,17,33,24.80
2015,05,28,17,34,24.80
2015,05,28,17,35,24.80
2015,05,28,17,36,24.80
2015,05,28,17,37,24.60
2015,05,28,17,38,24.50
2015,05,28,17,39,24.40
2015,05,28,17,40,24.30
2015,05,28,17,41,24.30
2015,05,28,17,42,24.40
2015,05,28,17,43,24.40
2015,05,28,17,44,24.50
2015,05,28,17,45,24.60
2015,05,28,17,46,24.60
2015,05,28,17,47,24.70
2015,05,28,17,48,24.70
2015,05,28,17,49,24.80
2015,05,28,17,50,24.90
2015,05,28,17,51,25.00
2015,05,28,17,52,25.00
2015,05,28,17,53,24.90
2015,05,28,17,54,24.80
2015,05,28,17,55,24.80
2015,05,28,17,56,24.70
2015,05,28,17,57,24.60
2015,05,28,17,58,24.50
2015,05,28,17,59,24.50
2015,05,28,18,00,24.50
2015,05,28,18,01,24.50
2015,05,28,18,02,24.50
2015,05,28,18,03,24.50
2015,05,28,18,04,24.50
2015,05,28,18,05,24.50
2015,05,28,18,06,24.50
2015,05,28,18,07,24.50
2015,05,28,18,08,24.60
2015,05,28,18,09,24.60
2015,05,28,18,10,24.60
2015,05,28,18,11,24.60
2015,05,28,18,12,24.60
2015,05,28,18,13,24.50
2015,05,28,18,14,24.50
2015,05,28,18,15,24.50
2015,05,28,18,16,24.40
2015,05,28,18,17,24.40
2015,05,28,18,18,24.40
2015,05,28,18,19,24.30
2015,05,28,18,20,24.30
2015,05,28,18,21,24.30
2015,05,28,18,22,24.30
2015,05,28,18,23,24.30
2015,05,28,18,24,24.30
2015,05,28,18,25,24.40
2015,05,28,18,26,24.40
2015,05,28,18,27,24.40
2015,05,28,18,28,24.50
2015,05,28,18,29,24.50
2015,05,28,18,30,24.60
2015,05,28,18,31,24.60
2015,05,28,18,32,24.60
2015,05,28,18,33,24.60
2015,05,28,18,34,24.60
2015,05,28,18,35,24.60
2015,05,28,18,36,24.60
2015,05,28,18,37,24.60
2015,05,28,18,38,24.60
2015,05,28,18,39,24.60
2015,05,28,18,40,24.60
2015,05,28,18,41,24.60
2015,05,28,18,42,24.60
2015,05,28,18,43,24.60
2015,05,28,18,44,24.60
2015,05,28,18,45,24.60
2015,05,28,18,46,24.60
2015,05,28,18,47,24.60
2015,05,28,18,48,24.60
2015,05,28,18,49,24.60
2015,05,28,18,50,24.60
2015,05,28,18,51,24.50
2015,05,28,18,52,24.50
2015,05,28,18,53,24.40
2015,05,28,18,54,24.40
2015,05,28,18,55,24.40
2015,05,28,18,56,24.40
2015,05,28,18,57,24.40
2015,05,28,18,58,24.40
2015,05,28,18,59,24.30
2015,05,28,19,00,24.30
2015,05,28,19,01,24.20
2015,05,28,19,02,24.20
2015,05,28,19,03,24.10
2015,05,28,19,04,24.10
2015,05,28,19,05,24.10
2015,05,28,19,06,24.00
2015,05,28,19,07,24.00
2015,05,28,19,08,23.90
2015,05,28,19,09,23.90
2015,05,28,19,10,23.90
2015,05,28,19,11,23.90
2015,05,28,19,12,23.90
2015,05,28,19,13,23.90
2015,05,28,19,14,23.90
2015,05,28,19,15,23.90
2015,05,28,19,16,23.90
2015,05,28,19,17,23.90
2015,05,28,19,18,23.90
2015,05,28,19,19,23.90
2015,05,28,19,20,23.90
2015,05,28,19,21,23.90
2015,05,28,19,22,23.90
2015,05,28,19,23,23.80
2015,05,28,19,24,23.80
2015,05,28,19,25,23.80
2015,05,28,19,26,23.80
2015,05,28,19,27,23.80
2015,05,28,19,28,23.80
2015,05,28,19,29,23.70
2015,05,28,19,30,23.70
2015,05,28,19,31,23.70
2015,05,28,19,32,23.60
2015,05,28,19,33,23.60
2015,05,28,19,34,23.60
2015,05,28,19,35,23.60
2015,05,28,19,36,23.50
2015,05,28,19,37,23.50
2015,05,28,19,38,23.40
2015,05,28,19,39,23.40
2015,05,28,19,40,23.30
2015,05,28,19,41,23.30
2015,05,28,19,42,23.30
2015,05,28,19,43,23.30
2015,05,28,19,44,23.30
2015,05,28,19,45,23.30
2015,05,28,19,46,23.30
2015,05,28,19,47,23.30
2015,05,28,19,48,23.30
2015,05,28,19,49,23.30
2015,05,28,19,50,23.30
2015,05,28,19,51,23.30
2015,05,28,19,52,23.30
2015,05,28,19,53,23.30
